Flag for U.S.A. Weather past 2 weeks in Irvine, California, U.S.A.

Now
59 °F

Low clouds.


Feels Like: 59 °F
Forecast: 56 / 74 °F
Wind: No wind

Location: John Wayne Airport-Orange County Airport

Current Time: Mar 31, 2015 at 6:17:32 AM

Latest Report: Mar 31, 2015 at 5:53 AM


Visibility: 8 mi

Pressure: 29.98 "Hg

Humidity: 87%

Dew point: 55 °F

Location of IrvineLocation

Historic Weather in Irvine — Graph

°F

Irvine temperature yesterday

Maximum temperature yesterday: 74 °F (at 12:53 PM)
Minimum temperature yesterday: 57 °F (at 4:53 AM)
Average temperature yesterday: 64 °F

Past Weeks' High & Low Weather Summary

 TemperatureHumidityPressure
High87 °F (Mar 26, 11:53 AM)94% (Mar 30, 4:02 AM)30.19 "Hg (Mar 30, 4:02 AM)
Low57 °F (Mar 30, 4:53 AM)14% (Mar 16, 12:53 PM)29.87 "Hg (Mar 16, 5:53 PM)
Average66 °F65%30.03 "Hg
* Reported Mar 16 4:53 AM — Mar 31 4:53 AM, Irvine, Weather by CustomWeather, © 2015

Note: Actual official high and low records may vary slightly from our data, if they occured in-between our weather recording intervals... More about our weather records

Advertising

Irvine weather history for previous 24 hours

 ConditionsComfort  
Time TempWeatherWind HumidityBarometerVisibility
4:53 AM
Tue, Mar 31
59 °FLow clouds.5 mph87%29.97 "Hg7 mi
3:53 AM59 °FLow clouds.No wind87%29.98 "Hg8 mi
3:00 AM59 °FLow clouds.No wind88%29.98 "Hg9 mi
1:53 AM59 °FOvercast.No wind87%29.99 "Hg10 mi
12:53 AM60 °FClear.5 mph83%30.01 "Hg10 mi
11:53 PM
Mon, Mar 30
61 °FLow clouds.6 mph83%30.01 "Hg10 mi
11:00 PM61 °FPassing clouds.6 mph88%30.01 "Hg8 mi
9:53 PM61 °FPassing clouds.5 mph87%30.00 "Hg9 mi
8:53 PM62 °FPassing clouds.5 mph83%29.98 "Hg9 mi
7:53 PM63 °FSunny.6 mph81%29.97 "Hg9 mi
6:53 PM65 °FSunny.9 mph73%29.96 "Hg10 mi
5:53 PM69 °FSunny.9 mph61%29.95 "Hg10 mi
4:53 PM69 °FSunny.8 mph61%29.95 "Hg10 mi
3:53 PM71 °FSunny.10 mph57%29.96 "Hg10 mi
2:53 PM73 °FSunny.10 mph51%29.97 "Hg10 mi
1:53 PM74 °FSunny.8 mph45%29.99 "Hg10 mi
12:53 PM74 °FSunny.9 mph50%30.01 "Hg9 mi
11:53 AM71 °FPassing clouds.8 mph59%30.02 "Hg8 mi
10:53 AM68 °FPassing clouds.5 mph61%30.03 "Hg9 mi
9:53 AM64 °FPassing clouds.No wind68%30.04 "Hg7 mi
8:53 AM61 °FOvercast.5 mph78%30.03 "Hg6 mi
7:53 AM59 °FLow clouds.No wind84%30.02 "Hg5 mi
6:53 AM59 °FLow clouds.No wind84%30.01 "Hg7 mi
Weather by CustomWeather, © 2015

See weather overviewHow to use our weather pages